Regional Weather Roundup
Issued by NWS

Home | Current Version | Previous Version | Graphics & Text | Print | Product List | Glossary On
Versions: 1 2 3 4 5 6 7 8 9 10 11 12 13 14 15 16 17 18 19 20 21 22 23 24 25 26 27 28 29 30 31 32 33 34 35 36 37 38 39 40 41 42 43 44 45 46 47 48 49 50
000
ASUS45 KPSR 191710
RWRAZ

ARIZONA REGIONAL HOURLY WEATHER ROUNDUP
NATIONAL WEATHER SERVICE PHOENIX AZ
1000 AM MST FRI DEC 19 2014

NOTE: FAIR INDICATES FEW OR NO CLOUDS BELOW 12,000 FEET WITH NO
SIGNIFICANT WEATHER AND/OR OBSTRUCTIONS TO VISIBILITY.

AZZ001>003-036-191800-
NORTHWEST ARIZONA

CITY           SKY/WX    TMP DP  RH WIND       PRES   REMARKS
BULLHEAD CITY  PTSUNNY   46  41  81 CALM      30.29R
KINGMAN        MOSUNNY   45  36  70 E5        30.26R
$$

AZZ004>008-015-016-018-191800-
NORTH CENTRAL ARIZONA

CITY           SKY/WX    TMP DP  RH WIND       PRES   REMARKS
GRAND CANYON   SUNNY     32  29  88 CALM      30.26R
PRESCOTT       SUNNY     38  31  76 CALM      30.27R
FLAGSTAFF      SUNNY     30  24  78 CALM      30.27R
PAYSON         SUNNY     43  27  52 CALM      30.27R
PAGE           SUNNY     38  28  67 CALM      30.28R
$$

AZZ009>014-017-191800-
NORTHEAST ARIZONA

CITY           SKY/WX    TMP DP  RH WIND       PRES   REMARKS
WINSLOW        FOG       31  30  96 E7        30.31R VSB 1/2 WCI  24
SAINT JOHNS    CLOUDY    33  31  92 CALM      30.28R
WINDOW ROCK    SUNNY     34  24  67 N3        30.26R
SHOW LOW       CLOUDY    28  25  86 NE9       30.29R WCI  20
$$

AZZ023-191800-
GREATER PHOENIX AREA

CITY           SKY/WX    TMP DP  RH WIND       PRES   REMARKS
PHOENIX        MOSUNNY   54  38  54 E7        30.24R
BUCKEYE          N/A     48  48 100 S3        30.27R
GLENDALE       MOSUNNY   52  43  71 E3        30.26R
LUKE AFB       SUNNY     50  41  71 CALM      30.25R
DEER VALLEY    SUNNY     51  41  68 S5        30.24R
SCOTTSDALE     SUNNY     50  40  68 CALM      30.25R
MESA-FALCON    MOSUNNY   48  37  66 N6        30.25
CHANDLER       MOSUNNY   48  45  87 CALM      30.27R
$$

AZZ027-028-191800-
SOUTHWEST MARICOPA COUNTY AND PINAL COUNTY

CITY           SKY/WX    TMP DP  RH WIND       PRES   REMARKS
CASA GRANDE    SUNNY     46  41  81 CALM      30.26R
GILA BEND      MOSUNNY   51  45  78 NE3       30.26R
$$

AZZ503-504-507>509-191800-
SOUTHEAST ARIZONA

CITY           SKY/WX    TMP DP  RH WIND       PRES   REMARKS
TUCSON         SUNNY     45  38  76 CALM      30.26R
DAVIS-MONTHAN  SUNNY     47  39  73 E2        30.23R
RYAN FIELD       N/A     46  46 100 E6        30.26R
NOGALES        CLOUDY    39  38  96 CALM      30.22R FOG
SIERRA VISTA   MOSUNNY   43  37  81 SE3       30.24R
DOUGLAS        SUNNY     40  37  89 W5        30.25R
SAFFORD        FOG       37  36  96 S3        30.28R VSB 1
$$

AZZ020-021-025-026-031-191800-
SOUTHWEST ARIZONA

CITY           SKY/WX    TMP DP  RH WIND       PRES   REMARKS
YUMA           MOSUNNY  N/A N/A N/A NE5       30.25R
$$

CAZ031-033-041-043-047-048-061-191800-
SOUTHERN CALIFORNIA

CITY           SKY/WX    TMP DP  RH WIND       PRES   REMARKS
DOWNTOWN L.A.  SUNNY     56  45  66 CALM      30.24R
L.A. AIRPORT   MOSUNNY   56  45  66 NE5       30.24R
SAN DIEGO      MOSUNNY   58  44  60 CALM      30.26R
BURBANK        SUNNY     52  43  71 CALM      30.23R
ONTARIO        MOSUNNY   54  42  64 E6        30.24R
RIVERSIDE      SUNNY     50  43  77 E3        30.25R
PALM SPRINGS   MOSUNNY   54  42  64 NW7       30.27R
EL CENTRO NAS  PTSUNNY   53  45  74 W6        30.25R
IMPERIAL       PTSUNNY   53  47  79 W5        30.25R
BLYTHE         MOSUNNY   50  41  71 CALM      30.26R
NEEDLES        MOSUNNY   49  39  68 SE5       30.26R
$$

NVZ020-UTZ003-191800-
SOUTHERN NEVADA-UTAH

CITY           SKY/WX    TMP DP  RH WIND       PRES   REMARKS
LAS VEGAS      PTSUNNY   45  36  70 S8        30.23R
SALT LAKE CITY PTSUNNY   37  28  70 SE12      30.19S WCI  29
$$

NMZ009-TXZ055-191800-
NEW MEXICO-WEST TEXAS

CITY           SKY/WX    TMP DP  RH WIND       PRES   REMARKS
ALBUQUERQUE    MOSUNNY   39  24  55 NW20      30.25R WCI  29
EL PASO        MOSUNNY   46  39  76 VRB3      30.23R
$$


........................KEY........................
SKY/WX - SKY CONDITION/WEATHER
TMP    - TEMPERATURE IN FAHRENHEIT
DP     - DEW POINT IN FAHRENHEIT
RH     - RELATIVE HUMIDITY IN PERCENT
WIND   - DIRECTION AND SPEED IN MILES PER HOUR (MPH)
VRB    - VARIABLE WIND DIRECTION
PRES   - MEAN SEA LEVEL PRESSURE IN INCHES OF MERCURY
         F - FALLING PRESSURE   R - RISING PRESSURE
         S - STEADY PRESSURE
VSB    - VISIBILITY IN MILES
HX     - HEAT INDEX IN FAHRENHEIT
WCI    - WIND CHILL INDEX IN FAHRENHEIT
TC     - TEMPERATURE IN CELSIUS WHICH IS ALSO KNOWN AS
         TEMPERATURE IN CENTIGRADE
AFB    - AIR FORCE BASE
         LUKE AFB IS LUKE AIR FORCE BASE
         DAVIS-MONTHAN IS DAVIS-MONTHAN AIR FORCE BASE
NAS    - NAVAL AIR STATION
         EL CENTRO NAS IS EL CENTRO NAVAL AIR STATION
N/A    - NOT AVAILABLE



USA.gov is the U.S. government's official web portal to all federal, state and local government web resources and services.